Retour au catalogue

THORAD AGENA D DEB

ActifLEO
NORAD 42505·DEBRIS·🇺🇸 United States

Lancé Apr 8, 1970 depuis Vandenberg Space Force Base

Loading…

Prochains Passages (prochaines 24 heures)

TLE

FraisSource: Space-Track

Époque: Sep 14, 2026, 02:57 UTC

1 42505U 70025RK  26257.12320782  .00000361  00000-0  54620-3 0  9997
2 42505 100.1810 215.9770 0044300 333.7674  87.7090 13.59879930635362

Suivez THORAD AGENA D DEB en temps réel avec AllMySat

Download on the App Store